TimeCDT,TemperatureF,Dew PointF,Humidity,Sea Level PressureIn,VisibilityMPH,Wind Direction,Wind SpeedMPH,Gust SpeedMPH,PrecipitationIn,Events,Conditions,WindDirDegrees,DateUTC
12:15 AM,62.6,57.2,82,30.23,10.0,South,4.6,-,N/A,,Clear,180,2013-08-26 05:15:00
12:35 AM,62.6,57.2,82,30.23,10.0,South,3.5,-,N/A,,Clear,190,2013-08-26 05:35:00
12:55 AM,62.6,57.2,82,30.22,10.0,SSW,3.5,-,N/A,,Clear,200,2013-08-26 05:55:00
1:15 AM,62.6,57.2,82,30.22,10.0,Calm,Calm,-,N/A,,Clear,0,2013-08-26 06:15:00
1:35 AM,64.4,57.2,77,30.22,10.0,Calm,Calm,-,N/A,,Clear,0,2013-08-26 06:35:00
1:55 AM,62.6,57.2,82,30.21,10.0,South,4.6,-,N/A,,Clear,180,2013-08-26 06:55:00
2:15 AM,60.8,55.4,82,30.20,10.0,South,6.9,-,N/A,,Clear,180,2013-08-26 07:15:00
2:35 AM,62.6,55.4,77,30.20,10.0,South,5.8,-,N/A,,Clear,190,2013-08-26 07:35:00
2:55 AM,62.6,55.4,77,30.19,10.0,SSW,5.8,-,N/A,,Clear,200,2013-08-26 07:55:00
3:15 AM,62.6,55.4,77,30.19,10.0,SSW,4.6,-,N/A,,Clear,210,2013-08-26 08:15:00
3:35 AM,62.6,57.2,82,30.20,10.0,SSW,5.8,-,N/A,,Clear,210,2013-08-26 08:35:00
3:55 AM,62.6,55.4,77,30.20,10.0,SW,4.6,-,N/A,,Clear,230,2013-08-26 08:55:00
4:15 AM,62.6,55.4,77,30.20,10.0,SW,4.6,-,N/A,,Clear,230,2013-08-26 09:15:00
4:35 AM,60.8,55.4,82,30.19,10.0,SW,4.6,-,N/A,,Clear,220,2013-08-26 09:35:00
4:55 AM,60.8,53.6,77,30.20,10.0,SW,3.5,-,N/A,,Clear,230,2013-08-26 09:55:00
5:15 AM,59.0,55.4,88,30.20,10.0,Calm,Calm,-,N/A,,Clear,0,2013-08-26 10:15:00
5:35 AM,59.0,55.4,88,30.20,10.0,South,4.6,-,N/A,,Clear,190,2013-08-26 10:35:00
5:55 AM,62.6,57.2,82,30.20,10.0,SW,6.9,-,N/A,,Clear,230,2013-08-26 10:55:00
6:15 AM,66.2,60.8,83,30.20,10.0,SW,6.9,-,N/A,,Clear,230,2013-08-26 11:15:00
6:35 AM,66.2,60.8,83,30.21,10.0,SW,6.9,-,N/A,,Clear,230,2013-08-26 11:35:00
6:55 AM,66.2,62.6,88,30.21,7.0,SW,5.8,-,N/A,,Clear,230,2013-08-26 11:55:00
7:15 AM,69.8,64.4,83,30.21,7.0,WSW,8.1,-,N/A,,Clear,240,2013-08-26 12:15:00
7:35 AM,71.6,64.4,78,30.21,8.0,WSW,9.2,-,N/A,,Clear,250,2013-08-26 12:35:00
7:55 AM,73.4,66.2,78,30.21,8.0,West,10.4,-,N/A,,Clear,260,2013-08-26 12:55:00
8:15 AM,75.2,66.2,73,30.22,7.0,West,11.5,-,N/A,,Clear,260,2013-08-26 13:15:00
8:35 AM,75.2,68.0,78,30.21,7.0,West,10.4,-,N/A,,Clear,270,2013-08-26 13:35:00
8:55 AM,77.0,69.8,78,30.21,7.0,West,9.2,-,N/A,,Clear,270,2013-08-26 13:55:00
9:15 AM,78.8,69.8,74,30.20,8.0,West,11.5,17.3,N/A,,Clear,280,2013-08-26 14:15:00
9:35 AM,80.6,71.6,74,30.20,8.0,West,13.8,19.6,N/A,,Clear,260,2013-08-26 14:35:00
9:55 AM,80.6,71.6,74,30.20,9.0,West,9.2,17.3,N/A,,Clear,280,2013-08-26 14:55:00
10:15 AM,82.4,71.6,70,30.19,9.0,West,10.4,18.4,N/A,,Clear,270,2013-08-26 15:15:00
10:35 AM,84.2,71.6,66,30.19,10.0,West,12.7,-,N/A,,Clear,260,2013-08-26 15:35:00
10:55 AM,84.2,69.8,62,30.19,10.0,West,11.5,-,N/A,,Clear,280,2013-08-26 15:55:00
11:15 AM,84.2,69.8,62,30.19,10.0,West,10.4,-,N/A,,Clear,280,2013-08-26 16:15:00
11:35 AM,84.2,69.8,62,30.19,10.0,West,12.7,-,N/A,,Clear,260,2013-08-26 16:35:00
11:55 AM,86.0,69.8,58,30.18,10.0,WNW,12.7,-,N/A,,Clear,300,2013-08-26 16:55:00
12:15 PM,86.0,69.8,58,30.18,10.0,West,12.7,-,N/A,,Clear,280,2013-08-26 17:15:00
12:35 PM,87.8,69.8,55,30.17,10.0,West,11.5,-,N/A,,Clear,270,2013-08-26 17:35:00
12:55 PM,87.8,69.8,55,30.16,10.0,NW,11.5,-,N/A,,Clear,310,2013-08-26 17:55:00
1:15 PM,86.0,68.0,55,30.16,10.0,WNW,12.7,-,N/A,,Clear,290,2013-08-26 18:15:00
1:35 PM,87.8,69.8,55,30.14,10.0,West,10.4,-,N/A,,Clear,280,2013-08-26 18:35:00
1:55 PM,87.8,69.8,55,30.13,10.0,West,10.4,-,N/A,,Clear,280,2013-08-26 18:55:00
2:15 PM,87.8,69.8,55,30.13,10.0,West,11.5,17.3,N/A,,Clear,270,2013-08-26 19:15:00
2:35 PM,89.6,69.8,52,30.13,10.0,West,12.7,-,N/A,,Clear,260,2013-08-26 19:35:00
2:55 PM,87.8,66.2,49,30.11,10.0,West,12.7,-,N/A,,Clear,270,2013-08-26 19:55:00
3:15 PM,87.8,68.0,52,30.11,-9999.0,West,11.5,-,N/A,,Unknown,280,2013-08-26 20:15:00
3:35 PM,87.8,68.0,52,30.09,10.0,West,8.1,-,N/A,,Clear,280,2013-08-26 20:35:00
3:55 PM,87.8,69.8,55,30.08,10.0,West,11.5,-,N/A,,Partly Cloudy,260,2013-08-26 20:55:00
4:15 PM,87.8,69.8,55,30.07,10.0,SW,13.8,19.6,N/A,,Mostly Cloudy,230,2013-08-26 21:15:00
4:35 PM,87.8,69.8,55,30.07,10.0,SW,11.5,18.4,N/A,,Mostly Cloudy,220,2013-08-26 21:35:00
4:55 PM,89.6,69.8,52,30.07,10.0,West,12.7,21.9,N/A,,Partly Cloudy,270,2013-08-26 21:55:00
5:15 PM,87.8,66.2,49,30.08,10.0,WSW,11.5,17.3,N/A,,Clear,250,2013-08-26 22:15:00
5:35 PM,87.8,66.2,49,30.08,10.0,WSW,10.4,-,N/A,,Clear,250,2013-08-26 22:35:00
5:55 PM,87.8,66.2,49,30.08,10.0,WSW,13.8,18.4,N/A,,Clear,250,2013-08-26 22:55:00
6:15 PM,84.2,66.2,55,30.08,10.0,West,8.1,-,N/A,,Clear,260,2013-08-26 23:15:00
6:35 PM,84.2,66.2,55,30.08,10.0,WSW,10.4,-,N/A,,Clear,250,2013-08-26 23:35:00
6:55 PM,82.4,66.2,58,30.08,10.0,WSW,8.1,-,N/A,,Clear,240,2013-08-26 23:55:00
7:15 PM,82.4,66.2,58,30.08,10.0,WSW,8.1,-,N/A,,Clear,240,2013-08-27 00:15:00
7:35 PM,80.6,66.2,61,30.08,10.0,SW,5.8,-,N/A,,Clear,230,2013-08-27 00:35:00
7:55 PM,78.8,66.2,65,30.08,10.0,SW,6.9,-,N/A,,Clear,230,2013-08-27 00:55:00
8:15 PM,77.0,66.2,69,30.08,10.0,SSW,5.8,-,N/A,,Clear,210,2013-08-27 01:15:00
8:35 PM,75.2,66.2,73,30.08,10.0,SSW,4.6,-,N/A,,Clear,200,2013-08-27 01:35:00
8:55 PM,71.6,64.4,78,30.08,10.0,SSW,4.6,-,N/A,,Clear,200,2013-08-27 01:55:00
9:15 PM,71.6,64.4,78,30.08,10.0,SSW,5.8,-,N/A,,Clear,200,2013-08-27 02:15:00
9:35 PM,71.6,64.4,78,30.08,10.0,SSW,6.9,-,N/A,,Clear,200,2013-08-27 02:35:00
9:55 PM,71.6,66.2,83,30.08,10.0,SSW,6.9,-,N/A,,Clear,200,2013-08-27 02:55:00
10:15 PM,73.4,66.2,78,30.08,9.0,SSW,6.9,-,N/A,,Clear,200,2013-08-27 03:15:00
10:35 PM,71.6,66.2,83,30.08,8.0,SSW,4.6,-,N/A,,Clear,200,2013-08-27 03:35:00
10:55 PM,71.6,66.2,83,30.08,8.0,SW,5.8,-,N/A,,Clear,220,2013-08-27 03:55:00
11:15 PM,71.6,66.2,83,30.08,9.0,SW,5.8,-,N/A,,Clear,230,2013-08-27 04:15:00
11:35 PM,73.4,66.2,78,30.08,10.0,SW,6.9,-,N/A,,Clear,230,2013-08-27 04:35:00
11:55 PM,73.4,66.2,78,30.07,10.0,SW,9.2,-,N/A,,Clear,230,2013-08-27 04:55:00